User: anonymous   Login
Location: Caltech
(34.1382°N, 118.1253°W)
Time: 03:13:29
(UTC-07:00)
Language:

Spot 4 Rocket - Orbit

View from above orbital plane
View from above orbital plane
View from above satellite
View from above satellite

Ground track
Ground track

The orbit data is extracted from the following two-line orbital elements,

1 25261U 98017B   17232.48263609 +.00000046 +00000-0 +32542-4 0  9994
2 25261 098.5496 178.9616 0002088 261.6075 098.4872 14.33598084013975
Epoch (UTC): 20 August 2017 11:34:59
Eccentricity: 0.0002088
inclination: 98.5496°
perigee height: 778 km
apogee height: 781 km
right ascension of ascending node: 178.9616°
argument of perigee: 261.6075°
revolutions per day: 14.33598084
mean anomaly at epoch: 98.4872°
orbit number at epoch: 1397

The dashed part of the orbit path shows where the satellite is in the earth's shadow,  

DLR